sat.trackr.live / text

‹ back to catalog

ONEWEB-0212

NORAD 48791 · 2021-045AA

PAYLOAD ACTIVE UNKNOWN

§ Identity

Operator
Country
UK
Launch date
2021-05-28
Launch site
VOSTO
Launch vehicle
Mass (kg)
RCS (m²)

Purposes: comms

External: N2YO · Heavens-Above · Gunter

§ Orbital elements

Epoch: 2026-09-20T04:55:55.002144Z

Period
109.46 min
Inclination
87.8993°
Eccentricity
0.0002124
Mean motion
13.15550917 rev/d
Perigee alt
1,200.2 km
Apogee alt
1,203.4 km
Semi-major
7,579.9 km
B*
-1.8330e-4
RAAN
240.2475°
Arg perigee
82.7573°
Mean anomaly
277.3799°
Rev number
25,692

§ Raw data

ONEWEB-02121 48791U 21045AA  26263.20549771 -.00000056  00000+0 -18330-3 0  99952 48791  87.8993 240.2475 0002124  82.7573 277.3799 13.15550917256925

JSON: /api/v1/satellites/48791 · /tle

For live sub-satellite position, see the globe view (requires WebGL).

§ Visibility from observer

Set your observer location to see the next 7 days of passes ≥ 10°. The values pass through the URL so the page stays shareable.

No JS? Fill the form by hand. The geolocation button needs JavaScript.